Weather History for Ft Lauderdale, FL

Change the Weather History Date:

Saturday, May 18, 2013

  Actual Average Record
Temperature  
Mean Temperature 80 °F 80 °F  
Max Temperature 84 °F 87 °F 96 °F (2008)
Min Temperature 76 °F 75 °F 55 °F (1917)
Degree Days  
Heating Degree Days 0 0  
Month to date heating degree days 0 0  
Since 1 July heating degree days 85 112  
Cooling Degree Days 15 16  
Month to date cooling degree days 231 256  
Year to date cooling degree days 1201 1203  
Growing Degree Days 28 (Base 50)    
Moisture  
Dew Point 71 °F    
Average Humidity 78    
Maximum Humidity 87    
Minimum Humidity 69    
Precipitation  
Precipitation 0.15 in 0.16 in 3.38 in (1972)
Month to date precipitation 6.58 1.98  
Year to date precipitation 15.71 14.82  
Snow  
Snow 0.00 in - - ()
Month to date snowfall 0.0  
Since 1 July snowfall 0.0  
Snow Depth 0.00 in    
Sea Level Pressure  
Sea Level Pressure 30.07 in    
Wind  
Wind Speed 9 mph (SE)    
Max Wind Speed 18 mph    
Max Gust Speed 23 mph    
Visibility 10 miles    
Events Rain    
T = Trace of Precipitation, MM = Missing Value Source: NWS Daily Summary

Daily Weather History Graph

Daily Weather History Graph

Search for Another Location

Airport:

Trip Planner

Search our weather history database for the weather conditions in past years. The results will help you decide how hot, cold, wet, or windy it might be!

Date:

Astronomy

May. 18, 2013 Rise Set
Actual Time 6:32 AM EDT 8:01 PM EDT
Civil Twilight 6:07 AM EDT 8:26 PM EDT
Nautical Twilight 5:37 AM EDT 8:56 PM EDT
Astronomical Twilight 5:06 AM EDT 9:28 PM EDT
Moon 1:41 PM EDT (5/18) 1:43 AM EDT (5/18)
Length of Visible Light 14h 19m
Length of Day
13h 28m
First Quarter, 55% of the Moon is Illuminated
May 18
First Quarter
May 25
Full
May 31
Last Quarter
Jun 8
New
Jun 16
First Quarter

Hourly Weather History & Observations

Time (EDT) Temp. Heat Index Dew Point Humidity Pressure Visibility Wind Dir Wind Speed Gust Speed Precip Events Conditions
12:53 AM 78.1 °F - 71.1 °F 79% 30.08 in 10.0 mi SSE 5.8 mph - N/A   Scattered Clouds
1:53 AM 78.1 °F - 71.1 °F 79% 30.07 in 10.0 mi SE 5.8 mph - N/A   Scattered Clouds
2:53 AM 78.1 °F - 72.0 °F 81% 30.05 in 10.0 mi SE 5.8 mph - N/A   Partly Cloudy
3:53 AM 78.1 °F - 72.0 °F 81% 30.05 in 10.0 mi SSE 4.6 mph - N/A   Partly Cloudy
4:53 AM 78.1 °F - 72.0 °F 81% 30.05 in 10.0 mi SSE 3.5 mph - N/A   Partly Cloudy
5:53 AM 77.0 °F - 72.0 °F 84% 30.06 in 10.0 mi Calm Calm - N/A   Partly Cloudy
6:53 AM 75.9 °F - 72.0 °F 87% 30.08 in 10.0 mi Calm Calm - N/A   Partly Cloudy
7:53 AM 78.1 °F - 73.9 °F 87% 30.09 in 10.0 mi Calm Calm - N/A   Scattered Clouds
8:53 AM 82.9 °F 87.5 °F 71.1 °F 67% 30.10 in 10.0 mi South 10.4 mph - 0.00 in Rain Light Rain
9:53 AM 81.0 °F 86.2 °F 73.9 °F 79% 30.11 in 7.0 mi SE 10.4 mph - 0.08 in Rain Light Rain
10:53 AM 81.0 °F 86.2 °F 73.9 °F 79% 30.10 in 10.0 mi SE 15.0 mph - 0.07 in Rain Light Rain
11:53 AM 82.9 °F 89.4 °F 73.9 °F 74% 30.11 in 10.0 mi SE 13.8 mph - N/A   Scattered Clouds
12:53 PM 82.9 °F 88.0 °F 72.0 °F 69% 30.09 in 10.0 mi SE 15.0 mph 21.9 mph N/A   Scattered Clouds
1:53 PM 82.9 °F 88.0 °F 72.0 °F 69% 30.08 in 10.0 mi SE 16.1 mph - N/A   Scattered Clouds
2:53 PM 82.9 °F 87.5 °F 71.1 °F 67% 30.06 in 10.0 mi SSE 15.0 mph 21.9 mph N/A   Scattered Clouds
3:53 PM 80.1 °F 83.6 °F 71.1 °F 74% 30.06 in 10.0 mi SE 12.7 mph - N/A   Scattered Clouds
4:53 PM 81.0 °F 84.4 °F 70.0 °F 69% 30.04 in 10.0 mi SE 12.7 mph - N/A   Scattered Clouds
5:53 PM 81.0 °F 84.4 °F 70.0 °F 69% 30.05 in 10.0 mi SSE 12.7 mph - N/A   Scattered Clouds
6:53 PM 80.1 °F 83.2 °F 70.0 °F 71% 30.04 in 10.0 mi ESE 12.7 mph - N/A   Partly Cloudy
7:53 PM 79.0 °F - 69.1 °F 72% 30.06 in 10.0 mi SE 10.4 mph - N/A   Scattered Clouds
8:01 PM 78.8 °F - 69.8 °F 74% 30.06 in 10.0 mi SE 8.1 mph - N/A   Mostly Cloudy
8:08 PM 78.8 °F - 69.8 °F 74% 30.06 in 10.0 mi SE 9.2 mph - N/A   Mostly Cloudy
8:53 PM 79.0 °F - 69.1 °F 72% 30.08 in 10.0 mi SE 8.1 mph - N/A   Partly Cloudy
9:53 PM 78.1 °F - 69.1 °F 74% 30.08 in 10.0 mi ESE 8.1 mph - N/A   Partly Cloudy
10:53 PM 78.1 °F - 70.0 °F 76% 30.09 in 10.0 mi ESE 6.9 mph - N/A   Partly Cloudy
11:53 PM 78.1 °F - 70.0 °F 76% 30.09 in 10.0 mi ESE 6.9 mph - N/A   Partly Cloudy